Back to catalog

STARLINK-32229

AliveCommunicationsVLEO
NORAD 60436·PAYLOAD·🇺🇸 United States

Launched Aug 12, 2024 from Cape Canaveral Space Force Station

Loading…

Next Passes (next 24 hours)

TLE

FreshSource: CelesTrak SupGP

Epoch: Sep 15, 2026, 03:18 UTC

1 60436C 24144M   26258.13798611 -.00012645  00000+0 -37364-3 0  2586
2 60436  53.1584  52.8255 0000870  86.5777 349.5152 15.34393538    13

Track STARLINK-32229 in real time with AllMySat

Download on the App Store